STARLINK-1063, 44768

Orbit data source: Space-Track

STARLINK-1063, 44768 is a payload satellite owned by SpaceX/Seattle (US) in LEO that was launched on Mon, 11 Nov 2019 UTC via an FALCON 9 launch vehicle from the Air Force Eastern Test Range (AFETR). Payloads include a variety of satellites, spacecraft, and rockets equipped with specific instruments for various scientific and technological missions. These include communications satellites like Starlink; space stations such as the ISS; scientific satellites like the Hubble; Earth observation satellites from companies like Planet Labs, Umbra, and HawkEye 360; GPS; miniature CubeSats for education and research; and military/defense satellites.

Loading next visibility...
STARLINK-1063 details
Identifier
44768, 2019-074BH
Orbit
LEO
Last TLE update11 hours ago
Origin
Flag of USSpaceX/Seattle (US)
ManufacturerSpaceX/Seattle
MissionOperational Commercial Communications
Bus & MotorSTARLINK, Unknown motor
Mass260 kg wet, ~248 kg dry
Launch date (UTC)
2019-11-11 (5 years ago)
Launch vehicle
FALCON 9
Launch site
Air Force Eastern Test Range (AFETR)
Object type
Payload
Rocket body
Debris
Shape & HBRBox + 1 Pan, 8.86 m
Radar Cross Section13.562 m², Large (>1 m²)

Expand to show TLE details & history

TLE from 11 hours ago
0 STARLINK-1063
1 44768U 19074BH  24336.85418747 -.00003643  00000-0 -22590-3 0  9991
2 44768  53.0528 144.3664 0002063  84.9459 275.1765 15.06381291278604
Epoch: 2024-12-01T20:30Z
Definitive object data (Epoch: 2024-12-01T20:30:01.797Z)
Latitude-0.00005°
Longitude125.67245°
Altitude548.019 km
Speed7.589 km/s
True Right ascension09h 37m 27s
True Declination0° 00' 00"
Sunlit
Object was in daylight at TLE epoch
Visualization TLE readout
Latitude49.87076°
Longitude-173.93128°
Altitude551.68 km
Speed7.593 km/s
Apparent Right ascension15h 47m 47s
Apparent Declination8° 29' 33"
Sunlit
Object is in daylight
Visualization observer readout
Local Sidereal Time05:44:13
Azimuth35.776° NE
Elevation-34.61°
Doppler factor1
Orbital elements
Apogee altitude548.969 km
Perigee altitude546.111 km
Semi-major axis6,925.677 km
Eccentricity0.0002063
Inclination53.0528°
RAAN144.3664°
Arg. of periapsis84.9459°
True anomaly275.15296°
Mean anomaly275.1765°
Eccentric anomaly275.16473°
Mean motion3.76574 °/min
BSTAR-0.0002259
Orbital period95.6 mins
Loading maneuver chart data...

STARLINK-1063 Visibility forecast

Observer location: undefined°, undefined

Span
Click to sort rows by Start time (UTC) header in descending order
Start Az.
Max El. time (UTC)
Max El. Az.
Max El.
End time (UTC)
End Az.
6 mins2024-12-02 14:13:04.161Z232.085° WSW2024-12-02 14:15:04.161Z262.566° W44.752°2024-12-02 14:19:04.161Z49.463° ENE
4 mins2024-12-02 15:54:04.161Z315.788° NNW2024-12-02 15:55:04.161Z335.769° NNW19.355°2024-12-02 15:58:04.161Z26.046° NE
4 mins2024-12-02 19:15:04.161Z348.278° N2024-12-02 19:17:04.161Z27.714° NE19.932°2024-12-02 19:19:04.161Z63.15° ENE
6 mins2024-12-02 20:54:04.161Z309.17° NW2024-12-02 20:57:04.161Z139.583° SSE44.181°2024-12-02 21:00:04.161Z131.923° SE
|